Volver al catálogo

STARLINK-31260

ActivoComunicacionesVLEO
NORAD 58881·PAYLOAD·🇺🇸 United States

Lanzado Jan 29, 2024 desde Vandenberg Space Force Base

Loading…

Próximos Pases (próximas 24 horas)

TLE

ActualizadoSource: CelesTrak SupGP

Época: Sep 14, 2026, 21:20 UTC

1 58881C 24020F   26257.88937500 -.00055765  00000+0 -16471-2 0  2577
2 58881  53.1581 160.1105 0001307  90.2895  58.9714 15.34428431    13

Sigue STARLINK-31260 en tiempo real con AllMySat

Download on the App Store